MDT,Max TemperatureF,Mean TemperatureF,Min TemperatureF,Max Dew PointF,MeanDew PointF,Min DewpointF,Max Humidity, Mean Humidity, Min Humidity, Max Sea Level PressureIn, Mean Sea Level PressureIn, Min Sea Level PressureIn, Max VisibilityMiles, Mean VisibilityMiles, Min VisibilityMiles, Max Wind SpeedMPH, Mean Wind SpeedMPH, Max Gust SpeedMPH,PrecipitationIn, CloudCover, Events, WindDirDegrees
2012-10-1,71,57,42,46,38,27,83,52,20,30.33,30.17,30.06,10,10,8,16,7,23,T,3,,351
2012-10-2,87,64,41,37,33,25,70,40,10,30.05,29.80,29.67,10,10,7,13,6,17,0.00,0,,67
2012-10-3,84,60,35,36,31,24,70,41,12,30.27,29.88,29.66,10,10,7,37,16,47,0.00,1,,323
2012-10-4,52,41,29,28,24,19,78,54,29,30.43,30.34,30.27,10,10,10,18,8,25,0.00,3,,357
2012-10-5,38,35,32,34,31,23,100,77,54,30.40,30.34,30.27,10,6,1,15,8,20,0.17,8,Snow,104
2012-10-6,36,31,26,34,31,25,100,91,82,30.44,30.35,30.27,10,3,0,12,5,15,0.14,7,Fog-Snow,89
2012-10-7,57,39,21,29,25,19,96,63,30,30.30,30.14,29.99,10,10,9,20,7,25,0.00,0,,291
2012-10-8,69,49,28,39,27,21,85,51,17,29.99,29.89,29.78,10,10,10,16,6,22,0.00,0,,351
2012-10-9,51,41,30,39,33,27,92,66,39,30.26,30.09,29.86,10,10,10,16,6,21,0.00,5,,360
2012-10-10,72,49,25,38,32,23,92,57,22,30.23,30.05,29.89,10,10,8,12,4,15,0.00,0,,94
2012-10-11,52,44,36,39,33,28,76,60,44,30.30,30.15,29.86,10,10,5,21,9,30,0.00,0,,64
2012-10-12,67,49,31,40,32,25,78,56,34,30.28,30.02,29.78,10,10,10,21,11,26,0.00,0,,128
2012-10-13,69,54,39,51,41,34,93,62,31,30.05,29.83,29.70,10,10,10,26,10,33,0.06,4,Rain,316
2012-10-14,70,55,39,38,35,32,79,52,25,30.16,30.08,30.03,10,10,10,18,7,28,0.00,0,,301
2012-10-15,81,58,35,39,32,23,89,51,12,30.02,29.85,29.74,10,10,10,29,8,33,0.00,0,,293
2012-10-16,78,58,38,46,38,33,79,49,19,29.84,29.59,29.37,10,10,7,36,11,44,0.10,2,Rain,293
2012-10-17,56,48,39,43,24,15,89,56,22,29.97,29.80,29.60,10,10,10,35,18,45,0.03,4,,316
2012-10-18,55,44,32,22,13,10,52,34,16,30.09,30.05,29.98,10,10,7,46,23,59,0.00,3,,313
2012-10-19,74,51,27,28,24,18,69,43,17,30.06,29.89,29.73,10,10,10,14,5,18,0.00,0,,307
2012-10-20,81,61,40,29,26,20,55,33,11,29.72,29.62,29.53,10,10,10,26,7,35,0.00,0,,288
2012-10-21,64,51,38,41,36,27,82,61,39,29.92,29.80,29.58,10,10,10,16,8,21,0.00,0,,54
2012-10-22,64,51,38,43,40,36,93,68,43,29.95,29.84,29.69,10,10,7,20,7,24,0.00,4,,118
2012-10-23,76,58,39,46,41,30,100,60,20,29.86,29.70,29.59,10,5,0,22,8,26,0.00,2,Fog,96
2012-10-24,48,39,30,39,33,28,100,86,71,30.12,29.97,29.85,10,5,0,26,10,33,0.20,8,Fog-Rain-Snow,8
2012-10-25,37,30,23,30,26,21,92,84,75,30.45,30.26,30.08,10,9,2,12,6,14,T,5,Snow,304
2012-10-26,40,33,25,27,24,21,92,73,54,30.56,30.41,30.25,10,10,9,17,5,22,0.00,5,,230
2012-10-27,51,38,25,26,24,20,85,58,31,30.23,30.15,30.07,10,10,8,13,5,18,0.00,1,,84
2012-10-28,63,45,26,38,32,21,85,64,42,30.15,30.05,29.94,10,10,10,24,5,32,0.00,2,,348
2012-10-29,71,53,35,40,37,32,89,60,31,30.07,30.00,29.94,10,10,10,17,6,24,0.00,0,,310
2012-10-30,72,54,36,38,34,30,85,54,22,30.10,30.03,29.95,10,10,10,14,7,17,0.00,0,,312
2012-10-31,74,52,29,36,31,28,92,56,20,30.11,30.06,30.01,10,10,10,20,6,25,0.00,0,,311